Location: Ahausen
(50.4985°N, 8.2722°E)
Time: 10:11:14
(UTC+00:00)

DUCHIFAT 1 - Visible Passes

Search period start: 25 June 2022 00:00
Search period end: 05 July 2022 00:00
Orbit: 579 x 598 km, 98.0° (Epoch: 24 June)

Date Brightness Start Highest point End Pass type
(mag) Time Alt. Az. Time Alt. Az. Time Alt. Az.
25 Jun ? 01:40:03 10° NNE 01:44:01 40° E 01:47:59 10° S visible
26 Jun ? 01:47:37 10° NNE 01:51:42 48° E 01:55:45 10° S visible
27 Jun ? 01:55:12 10° NNE 01:59:21 57° E 02:03:29 10° S visible
28 Jun ? 02:02:48 10° NNE 02:07:00 69° ESE 02:11:11 10° S visible
29 Jun ? 02:10:25 10° NNE 02:14:38 81° ESE 02:18:50 10° SSW visible
30 Jun ? 00:44:39 10° ENE 00:46:12 12° E 00:47:45 10° ESE visible
30 Jun ? 02:18:02 10° NNE 02:22:15 85° WNW 02:26:28 10° SSW visible
01 Jul ? 00:51:41 10° ENE 00:53:54 14° E 00:56:08 10° ESE visible
01 Jul ? 02:25:40 10° N 02:29:52 72° WNW 02:34:03 10° SSW visible
02 Jul ? 00:58:55 10° NE 01:01:36 16° E 01:04:18 10° SE visible
03 Jul ? 01:06:15 10° NE 01:09:18 19° E 01:12:20 10° SE visible
04 Jul ? 01:13:38 10° NE 01:16:59 22° E 01:20:18 10° SE visible
